User: anonymous   Login
Location: Mattawa
(46.3175°N, 78.7022°W)
Time: 01:26:16
(UTC-04:00)
Language:

ISS - Orbit

View from above orbital plane
View from above orbital plane
View from above satellite
View from above satellite

Ground track
Ground track

The orbit data is extracted from the following two-line orbital elements,

1 25544U 98067A   23081.87225215  .00015935  00000-0  29262-3 0  9993
2 25544  51.6418  36.1698 0006055 120.4003 335.4746 15.49396602388406
Epoch (UTC): 22 March 2023 20:56:02
Eccentricity: 0.0006055
inclination: 51.6418°
perigee height: 414 km
apogee height: 422 km
right ascension of ascending node: 36.1698°
argument of perigee: 120.4003°
revolutions per day: 15.49396602
mean anomaly at epoch: 335.4746°
orbit number at epoch: 38840

The dashed part of the orbit path shows where the satellite is in the earth's shadow,  

DLR